Weather History for Rutherfordton, NC

Change the Weather History Date:

Saturday, February 23, 2013

  Actual Average (KAVL) Record (KAVL)
Temperature  
Mean Temperature 40 °F 42 °F  
Max Temperature 44 °F 53 °F 76 °F (1982)
Min Temperature 36 °F 31 °F 10 °F (1939)
Degree Days  
Heating Degree Days 25 23  
Month to date heating degree days 578  
Since 1 July heating degree days 3105  
Cooling Degree Days 0 0  
Month to date cooling degree days 0  
Year to date cooling degree days 0  
Moisture  
Dew Point 39 °F    
Average Humidity 96    
Maximum Humidity 100    
Minimum Humidity 90    
Precipitation  
Precipitation 0.26 in 0.14 in 2.39 in (1994)
Month to date precipitation 3.10  
Year to date precipitation 6.77  
Snow  
Snow 0.00 in 0.00 in 3.80 in (1966)
Month to date snowfall 1.8  
Since 1 July snowfall 6.9  
Snow Depth -    
Sea Level Pressure  
Sea Level Pressure 29.95 in    
Wind  
Wind Speed 0 mph (East)    
Max Wind Speed 5 mph    
Max Gust Speed -    
Visibility 7 miles    
Events Rain    
T = Trace of Precipitation, MM = Missing Value Source: NWS Daily Summary

Daily Weather History Graph

Daily Weather History Graph

Search for Another Location

Airport:

Trip Planner

Search our weather history database for the weather conditions in past years. The results will help you decide how hot, cold, wet, or windy it might be!

Date:

Astronomy

Feb. 23, 2013 Rise Set
Actual Time 7:04 AM EST 6:17 PM EST
Civil Twilight 6:39 AM EST 6:43 PM EST
Nautical Twilight 6:09 AM EST 7:13 PM EST
Astronomical Twilight 5:40 AM EST 7:42 PM EST
Moon 4:29 PM EST (2/23) 5:23 AM EST (2/23)
Length of Visible Light 12h 04m
Length of Day
11h 13m
Waxing Gibbous, 95% of the Moon is Illuminated
Feb 23
Waxing Gibbous
Feb 25
Full
Mar 4
Last Quarter
Mar 11
New
Mar 19
First Quarter

Hourly Weather History & Observations

Time (EST) Temp. Windchill Dew Point Humidity Pressure Visibility Wind Dir Wind Speed Gust Speed Precip Events Conditions
12:15 AM 36.9 °F - 36.9 °F 100% 30.13 in 2.0 mi Calm Calm - 0.01 in Rain Rain
12:55 AM 36.7 °F - 36.7 °F 100% 30.11 in 4.0 mi Calm Calm - 0.05 in Rain Light Rain
1:15 AM 37.0 °F - 36.9 °F 99% 30.10 in 4.0 mi Calm Calm - 0.01 in Rain Light Rain
1:35 AM 36.7 °F - 36.5 °F 99% 30.08 in 2.5 mi Calm Calm - 0.03 in Rain Rain
1:55 AM 36.7 °F - 36.5 °F 99% 30.06 in 4.0 mi Calm Calm - 0.03 in Rain Rain
2:15 AM 36.9 °F - 36.7 °F 99% 30.05 in 4.0 mi Calm Calm - 0.01 in Rain Light Rain
2:35 AM 36.9 °F - 36.7 °F 99% 30.05 in 5.0 mi Calm Calm - 0.01 in Rain Light Rain
2:55 AM 37.2 °F - 36.7 °F 98% 30.05 in 5.0 mi Calm Calm - 0.02 in Rain Light Rain
3:15 AM 37.0 °F - 36.7 °F 99% 30.05 in 4.0 mi Calm Calm - 0.02 in Rain Light Rain
3:35 AM 37.0 °F - 36.9 °F 99% 30.03 in 3.0 mi Calm Calm - 0.04 in Rain Light Rain
3:55 AM 36.9 °F 34.3 °F 36.7 °F 99% 30.00 in 3.0 mi ENE 3.5 mph - 0.05 in Rain Light Rain
4:15 AM 36.7 °F - 36.5 °F 99% 30.00 in 7.0 mi Calm Calm - 0.01 in Rain Light Rain
4:35 AM 36.9 °F - 36.5 °F 99% 30.01 in 5.0 mi Calm Calm - 0.01 in Rain Light Rain
4:55 AM 36.9 °F - 36.5 °F 99% 30.01 in 4.0 mi Calm Calm - 0.04 in Rain Rain
5:15 AM 36.9 °F 33.1 °F 36.5 °F 99% 29.97 in 5.0 mi East 4.6 mph - 0.01 in Rain Light Rain
5:35 AM 36.5 °F 32.7 °F 36.5 °F 100% 29.96 in 7.0 mi ENE 4.6 mph - 0.01 in   Overcast
5:55 AM 36.7 °F 34.1 °F 36.5 °F 99% 29.99 in 7.0 mi WNW 3.5 mph - 0.01 in   Overcast
6:15 AM 36.7 °F - 36.5 °F 99% 29.98 in 7.0 mi Calm Calm - N/A   Drizzle
6:35 AM 36.7 °F - 36.5 °F 99% 29.98 in 5.0 mi Calm Calm - 0.01 in Rain Rain
6:55 AM 36.7 °F - 36.1 °F 98% 29.97 in 4.0 mi Calm Calm - 0.04 in Rain Rain
7:15 AM 36.7 °F - 36.1 °F 98% 29.98 in 7.0 mi Calm Calm - N/A Rain Light Rain
7:35 AM 37.0 °F - 36.7 °F 99% 29.98 in 5.0 mi Calm Calm - 0.01 in   Light Drizzle
7:55 AM 36.9 °F - 36.5 °F 99% 29.98 in 5.0 mi Calm Calm - 0.01 in Rain Light Rain
8:15 AM 37.4 °F - 36.5 °F 97% 29.98 in 5.0 mi Calm Calm - N/A   Drizzle
8:35 AM 37.4 °F - 36.7 °F 97% 29.97 in 7.0 mi Calm Calm - N/A Rain Rain
8:55 AM 37.4 °F - 36.7 °F 97% 29.98 in 7.0 mi Calm Calm - N/A Rain Rain
9:15 AM 37.4 °F - 36.7 °F 97% 30.00 in 4.0 mi Calm Calm - N/A   Drizzle
9:35 AM 37.9 °F - 37.0 °F 97% 29.99 in 5.0 mi Calm Calm - N/A Rain Light Rain
9:55 AM 38.3 °F - 37.6 °F 97% 29.99 in 7.0 mi Calm Calm - N/A Rain Light Rain
10:15 AM 38.3 °F - 37.6 °F 97% 29.98 in 7.0 mi Calm Calm - 0.01 in   Drizzle
10:35 AM 39.0 °F - 38.3 °F 97% 29.97 in 10.0 mi Calm Calm - 0.01 in   Overcast
10:55 AM 38.7 °F - 37.8 °F 97% 29.97 in 10.0 mi Calm Calm - 0.01 in   Overcast
11:15 AM 39.2 °F - 37.9 °F 95% 29.97 in 10.0 mi Calm Calm - N/A   Overcast
11:35 AM 39.9 °F - 38.3 °F 94% 29.97 in 10.0 mi Calm Calm - N/A   Overcast
11:55 AM 40.5 °F - 38.5 °F 93% 29.97 in 10.0 mi Calm Calm - N/A   Overcast
12:15 PM 41.0 °F - 39.2 °F 93% 29.97 in 10.0 mi Calm Calm - N/A   Overcast
12:35 PM 41.7 °F - 39.7 °F 93% 29.95 in 10.0 mi Calm Calm - N/A   Overcast
1:15 PM 42.4 °F - 40.1 °F 91% 29.92 in 10.0 mi Calm Calm - N/A   Overcast
1:35 PM 42.3 °F - 40.1 °F 92% 29.92 in 10.0 mi Calm Calm - N/A   Overcast
1:55 PM 42.4 °F - 39.9 °F 91% 29.93 in 10.0 mi Calm Calm - N/A   Overcast
2:15 PM 43.0 °F - 40.3 °F 90% 29.92 in 10.0 mi Calm Calm - N/A   Overcast
2:35 PM 43.7 °F - 41.0 °F 90% 29.92 in 10.0 mi Calm Calm - N/A   Overcast
2:55 PM 44.1 °F - 41.4 °F 90% 29.91 in 10.0 mi Calm Calm - N/A   Overcast
3:15 PM 44.1 °F - 41.4 °F 90% 29.90 in 10.0 mi Calm Calm - N/A   Overcast
3:35 PM 44.1 °F - 41.5 °F 91% 29.90 in 10.0 mi Calm Calm - N/A   Overcast
3:55 PM 44.2 °F - 41.7 °F 91% 29.90 in 10.0 mi Calm Calm - N/A   Overcast
4:15 PM 44.6 °F - 41.9 °F 90% 29.89 in 10.0 mi Calm Calm - N/A   Overcast
4:35 PM 44.6 °F - 41.9 °F 90% 29.89 in 10.0 mi Calm Calm - N/A   Overcast
4:55 PM 44.2 °F - 42.3 °F 93% 29.89 in 10.0 mi Calm Calm - N/A   Overcast
5:15 PM 44.6 °F - 42.1 °F 91% 29.87 in 10.0 mi Calm Calm - N/A   Overcast
5:35 PM 44.2 °F - 42.3 °F 93% 29.87 in 10.0 mi Calm Calm - N/A   Overcast
5:55 PM 44.4 °F - 42.3 °F 92% 29.86 in 10.0 mi Calm Calm - N/A   Overcast
6:15 PM 43.9 °F - 42.4 °F 95% 29.86 in 10.0 mi Calm Calm - N/A   Overcast
6:35 PM 43.7 °F - 42.3 °F 95% 29.85 in 10.0 mi Calm Calm - N/A   Mostly Cloudy
6:55 PM 43.5 °F - 42.3 °F 95% 29.85 in 10.0 mi Calm Calm - N/A   Clear
7:15 PM 42.8 °F - 42.3 °F 98% 29.86 in 10.0 mi Calm Calm - N/A   Clear
7:35 PM 42.4 °F - 41.9 °F 98% 29.86 in 7.0 mi Calm Calm - N/A   Clear
7:55 PM 42.1 °F 40.2 °F 41.7 °F 99% 29.86 in 5.0 mi South 3.5 mph - N/A   Clear
8:15 PM 42.4 °F - 42.3 °F 99% 29.86 in 7.0 mi Calm Calm - N/A   Mostly Cloudy
8:35 PM 42.1 °F 40.2 °F 41.9 °F 99% 29.86 in 4.0 mi SSE 3.5 mph - N/A   Overcast
8:55 PM 42.6 °F - 42.3 °F 99% 29.87 in 7.0 mi Calm Calm - N/A   Overcast
9:15 PM 42.4 °F - 42.3 °F 99% 29.87 in 4.0 mi Calm Calm - N/A   Overcast
9:35 PM 42.6 °F - 42.3 °F 99% 29.87 in 5.0 mi Calm Calm - N/A   Overcast
9:55 PM 42.8 °F - 42.1 °F 97% 29.87 in 7.0 mi Calm Calm - N/A   Overcast
10:15 PM 42.4 °F - 42.1 °F 99% 29.86 in 5.0 mi Calm Calm - N/A   Overcast
10:35 PM 42.4 °F - 42.1 °F 99% 29.86 in 3.0 mi Calm Calm - N/A   Overcast
10:55 PM 42.3 °F - 42.1 °F 99% 29.86 in 3.0 mi Calm Calm - N/A   Overcast
11:15 PM 42.4 °F - 42.1 °F 99% 29.86 in 4.0 mi Calm Calm - N/A   Overcast
11:35 PM 42.1 °F - 41.9 °F 99% 29.85 in 5.0 mi Calm Calm - N/A   Overcast
11:55 PM 42.1 °F - 41.9 °F 99% 29.86 in 5.0 mi Calm Calm - N/A   Overcast